Location: D�rnast
(49.6426°N, 11.9755°E)
Time: 06:48:31
(UTC+00:00)

N. Korean satellite - Pass Details

Date: 10 December 2021
Orbit: 446 x 492 km, 97.3° (Epoch: 18 January)

Event Time Altitude Azimuth Distance (km) Brightness Sun altitude
Rises 03:27:08 0° 31° (NNE) 2,462 10.6 -32.9°
Enters shadow 03:29:58 10° 58° (ENE) 1,596 9.8 -32.5°
Exits shadow 03:32:23 13° 102° (ESE) 1,406 9.6 -32.1°
Drops below altitude 10° 03:33:31 10° 121° (ESE) 1,577 9.8 -31.9°
Sets 03:36:24 0° 150° (SSE) 2,446 10.5 -31.4°
